Regional Weather Roundup
Issued by NWS Charleston, WV

Home | Current Version | Previous Version | Text Only | Print | Product List | Glossary Off
Versions: 1 2 3 4 5 6 7 8 9 10 11 12 13 14 15 16 17 18 19 20 21 22 23 24 25 26 27 28 29 30 31 32 33 34 35 36 37 38 39 40 41 42 43 44 45 46 47 48 49 50

000
ASUS41 KRLX 230810
RWRRLX
West Virginia Regional Weather Roundup
National Weather Service Charleston WV
400 AM EDT TUE SEP 23 2014

Note: "fair" indicates few or no clouds below 12,000 feet with no
significant weather and/or obstructions to visibility.

WVZ003-230900-
Northern Panhandle of West Virginia

CITY           SKY/WX    TMP DP  RH WIND       PRES   REMARKS
WHEELING       PTCLDY    43  40  89 CALM      30.29F
$$

WVZ009-230900-
Northwest West Virginia

CITY           SKY/WX    TMP DP  RH WIND       PRES   REMARKS
PARKERSBURG    CLOUDY    42  41  96 CALM      30.31F
$$

WVZ006-230900-
Western West Virginia

CITY           SKY/WX    TMP DP  RH WIND       PRES   REMARKS
HUNTINGTON     CLEAR     47  46  97 CALM      30.27F
$$

WVZ015-230900-
West Central West Virginia

CITY           SKY/WX    TMP DP  RH WIND       PRES   REMARKS
CHARLESTON     FOG       48  48 100 CALM      30.27F VSB 1/4
$$

WVZ031-230900-
North Central West Virginia

CITY           SKY/WX    TMP DP  RH WIND       PRES   REMARKS
CLARKSBURG     FOG       41  41 100 CALM      30.29S VSB 1/4
MORGANTOWN     CLEAR     44  40  85 CALM      30.31R FOG
$$

WVZ035-042-045-230900-
South Central West Virginia

CITY           SKY/WX    TMP DP  RH WIND       PRES   REMARKS
BECKLEY        CLEAR     43  40  89 CALM      30.27S
BLUEFIELD      PTCLDY    47  43  86 CALM      30.27F
LEWISBURG      FOG       40  38  95 CALM      30.28R VSB 1/4
$$

WVZ047-230900-
Northern Mountains of West Virginia

CITY           SKY/WX    TMP DP  RH WIND       PRES   REMARKS
ELKINS         CLOUDY    41  41 100 CALM      30.31R FOG
$$

WVZ052-230900-
Eastern Panhandle of West Virginia

CITY           SKY/WX    TMP DP  RH WIND       PRES   REMARKS
MARTINSBURG    CLEAR     45  39  79 S3        30.28S
PETERSBURG     CLEAR     40  38  94 CALM      30.31R FOG
$$



USA.gov is the U.S. government's official web portal to all federal, state and local government web resources and services.